Flag for U.S.A. Weather past 2 weeks in Port St. Lucie, Florida, U.S.A.

Now
81 °F

Broken clouds.


Feels Like: 83 °F
Forecast: 76 / 87 °F
Wind: 12 mph from Southeast

Location: Witham Field Airport

Current Time: May 24, 2015 at 9:26:21 AM

Latest Report: May 24, 2015 at 8:47 AM


Visibility: 7 mi

Pressure: 30.20 "Hg

Humidity: 66%

Dew point: 68 °F

Location of Port St. LucieLocation

Historic Weather in Port St. Lucie — Graph

°F

Port St. Lucie temperature yesterday

Maximum temperature yesterday: 84 °F (at 1:47 PM)
Minimum temperature yesterday: 72 °F (at 5:35 AM)
Average temperature yesterday: 77 °F

Past Weeks' High & Low Weather Summary

 TemperatureHumidityPressure
High86 °F (May 20, 3:47 PM)100% (May 9, 6:50 AM)30.24 "Hg (May 9, 6:50 AM)
Low66 °F (May 9, 6:15 AM)51% (May 9, 3:47 PM)29.94 "Hg (May 20, 6:47 PM)
Average76 °F78%30.12 "Hg
* Reported May 9 6:15 AM — May 24 6:47 AM, Port St. Lucie, Weather by CustomWeather, © 2015

Note: Actual official high and low records may vary slightly from our data, if they occured in-between our weather recording intervals... More about our weather records

Advertising

Port St. Lucie weather history for previous 24 hours

 ConditionsComfort  
Time TempWeatherWind HumidityBarometerVisibility
6:47 AM
Sun, May 24
77 °FScattered showers. Partly cloudy.6 mph83%30.18 "Hg7 mi
6:15 AM77 °FPassing clouds.5 mph83%30.17 "Hg10 mi
5:55 AM77 °FPassing clouds.8 mph79%30.17 "Hg10 mi
5:35 AM77 °FPartly cloudy.5 mph79%30.17 "Hg10 mi
5:15 AM77 °FPassing clouds.7 mph79%30.16 "Hg10 mi
4:55 AM77 °FPassing clouds.8 mph79%30.16 "Hg10 mi
4:35 AM75 °FPassing clouds.6 mph89%30.16 "Hg10 mi
4:15 AM75 °FPartly cloudy.6 mph83%30.15 "Hg10 mi
3:55 AM77 °FPartly cloudy.6 mph79%30.16 "Hg10 mi
3:35 AM79 °FPassing clouds.10 mph79%30.17 "Hg10 mi
3:15 AM77 °FClear.7 mph83%30.16 "Hg10 mi
2:55 AM75 °FClear.No wind83%30.16 "Hg10 mi
2:35 AM73 °FClear.3 mph83%30.17 "Hg10 mi
2:15 AM73 °FPassing clouds.7 mph83%30.18 "Hg10 mi
1:55 AM73 °FPassing clouds.7 mph83%30.19 "Hg10 mi
1:35 AM73 °FPartly cloudy.6 mph83%30.19 "Hg10 mi
1:15 AM77 °FPartly cloudy.10 mph74%30.20 "Hg10 mi
12:55 AM79 °FClear.10 mph79%30.20 "Hg10 mi
12:35 AM79 °FPassing clouds.12 mph79%30.20 "Hg10 mi
12:15 AM79 °FPassing clouds.8 mph79%30.20 "Hg10 mi
11:55 PM
Sat, May 23
79 °FPassing clouds.8 mph79%30.20 "Hg10 mi
11:15 PM79 °FPassing clouds.8 mph79%30.20 "Hg10 mi
10:55 PM79 °FPassing clouds.12 mph79%30.20 "Hg10 mi
10:15 PM79 °FClear.12 mph79%30.20 "Hg10 mi
9:55 PM79 °FClear.8 mph79%30.19 "Hg10 mi
9:35 PM79 °FClear.9 mph79%30.19 "Hg10 mi
9:15 PM79 °FClear.10 mph79%30.18 "Hg10 mi
8:55 PM79 °FSunny.10 mph79%30.18 "Hg10 mi
8:35 PM79 °FSunny.14 mph79%30.18 "Hg10 mi
8:15 PM79 °FSunny.13 mph79%30.18 "Hg10 mi
7:55 PM79 °FSunny.12 mph79%30.19 "Hg10 mi
7:35 PM81 °FSunny.10 mph74%30.19 "Hg10 mi
7:15 PM81 °FSunny.14 mph74%30.19 "Hg10 mi
5:55 PM82 °FScattered clouds.13 mph74%30.18 "Hg7 mi
4:47 PM84 °FScattered clouds.13 mph70%30.19 "Hg7 mi
2:47 PM84 °FBroken clouds.12 mph66%30.21 "Hg7 mi
1:47 PM84 °FBroken clouds.12 mph62%30.22 "Hg7 mi
9:47 AM82 °FBroken clouds.7 mph74%30.22 "Hg7 mi
Weather by CustomWeather, © 2015

See weather overviewHow to use our weather pages